When you browse on this site, cookies collect data to enhance your experience and personalize the content and advertising you see.
Visit our Privacy Policy to learn more. By continuing to use the site, you agree to this use of cookies and data.
  • In Hungary
  • List of Countries
  • For 7 days
  • Water Temperature
  • Satellite Maps
  • Weather Map
  • News
  • Weather Widgets
  • user-avatar
    Login

    Hourly Weather Chatra

    Today, 19 November, Monday

    Time Temperature Precipitation Wind Pressure Humidity
    00:00 +19°C° 0 mm 1 mps 724 mmHg 49%
    01:00 +18°C° 0 mm 1 mps 724 mmHg 50%
    02:00 +18°C° 0 mm 1 mps 724 mmHg 52%
    03:00 +18°C° 0 mm 1 mps 724 mmHg 53%
    04:00 +16°C° 0 mm 1 mps 724 mmHg 54%
    05:00 +16°C° 0 mm 1 mps 724 mmHg 55%
    06:00 +16°C° 0 mm 1 mps 724 mmHg 59%
    07:00 +19°C° 0 mm 1 mps 725 mmHg 55%
    08:00 +21°C° 0 mm 1 mps 725 mmHg 52%
    09:00 +23°C° 0 mm 1 mps 726 mmHg 49%
    10:00 +23°C° 0 mm 0 mps 726 mmHg 44%
    11:00 +25°C° 0 mm 0 mps 726 mmHg 40%
    12:00 +27°C° 0 mm 0 mps 726 mmHg 36%
    13:00 +29°C° 0 mm 1 mps 725 mmHg 34%
    14:00 +29°C° 0 mm 1 mps 724 mmHg 33%
    15:00 +29°C° 0 mm 2 mps 724 mmHg 31%
    16:00 +27°C° 0 mm 1 mps 724 mmHg 36%
    17:00 +25°C° 0 mm 1 mps 723 mmHg 41%
    18:00 +22°C° 0 mm 1 mps 723 mmHg 46%
    19:00 +22°C° 0 mm 1 mps 724 mmHg 46%
    20:00 +21°C° 0 mm 1 mps 724 mmHg 47%
    21:00 +18°C° 0 mm 0 mps 724 mmHg 48%
    22:00 +20°C° 0 mm 1 mps 724 mmHg 49%
    23:00 +19°C° 0 mm 1 mps 724 mmHg 50%

    Tomorrow, 20 November, Tuesday

    Time Temperature Precipitation Wind Pressure Humidity
    00:00 +19°C° 0 mm 1 mps 724 mmHg 51%
    01:00 +19°C° 0 mm 1 mps 724 mmHg 51%
    02:00 +18°C° 0 mm 1 mps 724 mmHg 52%
    03:00 +18°C° 0 mm 1 mps 723 mmHg 53%
    04:00 +18°C° 0 mm 1 mps 724 mmHg 53%
    05:00 +16°C° 0 mm 1 mps 724 mmHg 53%
    06:00 +16°C° 0 mm 1 mps 724 mmHg 54%
    07:00 +19°C° 0 mm 1 mps 724 mmHg 51%
    08:00 +21°C° 0 mm 1 mps 725 mmHg 47%
    09:00 +23°C° 0 mm 1 mps 726 mmHg 44%
    10:00 +25°C° 0 mm 1 mps 726 mmHg 40%
    11:00 +27°C° 0 mm 2 mps 725 mmHg 35%
    12:00 +28°C° 0 mm 2 mps 725 mmHg 31%
    13:00 +29°C° 0 mm 2 mps 725 mmHg 31%
    14:00 +29°C° 0 mm 2 mps 724 mmHg 31%
    15:00 +29°C° 0 mm 2 mps 723 mmHg 31%
    16:00 +27°C° 0 mm 2 mps 723 mmHg 36%
    17:00 +25°C° 0 mm 1 mps 723 mmHg 41%
    18:00 +22°C° 0 mm 1 mps 723 mmHg 45%
    19:00 +22°C° 0 mm 1 mps 723 mmHg 46%
    20:00 +21°C° 0 mm 1 mps 724 mmHg 47%
    21:00 +21°C° 0 mm 1 mps 724 mmHg 48%
    22:00 +20°C° 0 mm 1 mps 724 mmHg 49%
    23:00 +20°C° 0 mm 1 mps 724 mmHg 49%

    Day after tomorrow, 21 November, Wednesday

    Time Temperature Precipitation Wind Pressure Humidity
    00:00 +19°C° 0 mm 1 mps 724 mmHg 50%
    01:00 +19°C° 0 mm 1 mps 724 mmHg 51%
    02:00 +19°C° 0 mm 1 mps 723 mmHg 52%
    03:00 +18°C° 0 mm 1 mps 723 mmHg 53%
    04:00 +18°C° 0 mm 1 mps 723 mmHg 54%
    05:00 +18°C° 0 mm 1 mps 724 mmHg 54%
    06:00 +16°C° 0 mm 2 mps 724 mmHg 55%
    07:00 +18°C° 0 mm 2 mps 724 mmHg 52%
    08:00 +20°C° 0 mm 2 mps 725 mmHg 49%
    09:00 +23°C° 0 mm 2 mps 726 mmHg 47%
    10:00 +25°C° 0 mm 2 mps 726 mmHg 41%
    11:00 +27°C° 0 mm 2 mps 726 mmHg 35%
    12:00 +29°C° 0 mm 2 mps 726 mmHg 29%
    13:00 +29°C° 0 mm 3 mps 725 mmHg 29%
    14:00 +29°C° 0 mm 3 mps 724 mmHg 29%
    15:00 +29°C° 0 mm 3 mps 724 mmHg 29%
    16:00 +27°C° 0 mm 2 mps 723 mmHg 33%
    17:00 +24°C° 0 mm 1 mps 723 mmHg 38%
    18:00 +22°C° 0 mm 1 mps 723 mmHg 42%
    19:00 +19°C° 0 mm 0 mps 724 mmHg 43%
    20:00 +19°C° 0 mm 0 mps 724 mmHg 44%
    21:00 +18°C° 0 mm 0 mps 725 mmHg 45%
    22:00 +20°C° 0 mm 1 mps 725 mmHg 46%
    23:00 +19°C° 0 mm 1 mps 725 mmHg 47%

    22 November, Thursday

    Time Temperature Precipitation Wind Pressure Humidity
    00:00 +19°C° 0 mm 1 mps 725 mmHg 47%
    01:00 +19°C° 0 mm 1 mps 724 mmHg 48%
    02:00 +18°C° 0 mm 1 mps 724 mmHg 49%
    03:00 +18°C° 0 mm 1 mps 724 mmHg 49%
    04:00 +18°C° 0 mm 1 mps 724 mmHg 50%
    05:00 +16°C° 0 mm 1 mps 724 mmHg 51%
    06:00 +16°C° 0 mm 1 mps 724 mmHg 52%
    07:00 +19°C° 0 mm 1 mps 725 mmHg 49%
    08:00 +21°C° 0 mm 1 mps 726 mmHg 47%
    09:00 +23°C° 0 mm 1 mps 726 mmHg 44%
    10:00 +24°C° 0 mm 2 mps 726 mmHg 39%
    11:00 +26°C° 0 mm 2 mps 726 mmHg 34%
    12:00 +28°C° 0 mm 2 mps 726 mmHg 28%
    13:00 +28°C° 0 mm 2 mps 725 mmHg 28%
    14:00 +28°C° 0 mm 2 mps 725 mmHg 27%
    15:00 +28°C° 0 mm 3 mps 724 mmHg 27%
    16:00 +26°C° 0 mm 2 mps 724 mmHg 32%
    17:00 +24°C° 0 mm 1 mps 724 mmHg 36%
    18:00 +21°C° 0 mm 1 mps 724 mmHg 40%
    19:00 +21°C° 0 mm 1 mps 724 mmHg 41%
    20:00 +20°C° 0 mm 1 mps 725 mmHg 42%
    21:00 +17°C° 0 mm 0 mps 725 mmHg 43%
    22:00 +19°C° 0 mm 1 mps 725 mmHg 44%
    23:00 +18°C° 0 mm 1 mps 725 mmHg 44%

    23 November, Friday

    Time Temperature Precipitation Wind Pressure Humidity
    00:00 +18°C° 0 mm 1 mps 725 mmHg 45%
    01:00 +16°C° 0 mm 1 mps 725 mmHg 46%
    02:00 +16°C° 0 mm 1 mps 725 mmHg 47%
    03:00 +15°C° 0 mm 1 mps 724 mmHg 48%
    04:00 +15°C° 0 mm 1 mps 724 mmHg 48%
    05:00 +15°C° 0 mm 1 mps 725 mmHg 49%
    06:00 +14°C° 0 mm 1 mps 725 mmHg 50%
    07:00 +16°C° 0 mm 1 mps 725 mmHg 47%
    08:00 +19°C° 0 mm 1 mps 726 mmHg 45%
    09:00 +21°C° 0 mm 1 mps 727 mmHg 42%
    10:00 +23°C° 0 mm 2 mps 727 mmHg 37%
    11:00 +25°C° 0 mm 2 mps 726 mmHg 33%
    12:00 +27°C° 0 mm 2 mps 726 mmHg 28%
    13:00 +27°C° 0 mm 3 mps 726 mmHg 28%
    14:00 +27°C° 0 mm 3 mps 725 mmHg 28%
    15:00 +27°C° 0 mm 3 mps 724 mmHg 28%
    16:00 +25°C° 0 mm 3 mps 724 mmHg 32%
    17:00 +21°C° 0 mm 2 mps 724 mmHg 36%
    18:00 +20°C° 0 mm 1 mps 724 mmHg 40%
    19:00 +19°C° 0 mm 1 mps 724 mmHg 40%
    20:00 +19°C° 0 mm 1 mps 724 mmHg 41%
    21:00 +18°C° 0 mm 1 mps 725 mmHg 41%
    22:00 +16°C° 0 mm 1 mps 725 mmHg 41%
    23:00 +16°C° 0 mm 1 mps 724 mmHg 42%

    24 November, Saturday

    Time Temperature Precipitation Wind Pressure Humidity
    00:00 +15°C° 0 mm 2 mps 724 mmHg 42%
    01:00 +15°C° 0 mm 2 mps 724 mmHg 42%
    02:00 +15°C° 0 mm 2 mps 724 mmHg 43%
    03:00 +14°C° 0 mm 2 mps 723 mmHg 43%
    04:00 +14°C° 0 mm 2 mps 724 mmHg 43%
    05:00 +14°C° 0 mm 2 mps 724 mmHg 42%
    06:00 +14°C° 0 mm 2 mps 724 mmHg 42%
    07:00 +16°C° 0 mm 2 mps 725 mmHg 41%
    08:00 +17°C° 0 mm 2 mps 726 mmHg 40%
    09:00 +19°C° 0 mm 2 mps 726 mmHg 39%
    10:00 +21°C° 0 mm 2 mps 726 mmHg 35%
    11:00 +24°C° 0 mm 2 mps 726 mmHg 32%
    12:00 +26°C° 0 mm 2 mps 726 mmHg 28%
    13:00 +26°C° 0 mm 3 mps 725 mmHg 29%
    14:00 +26°C° 0 mm 3 mps 724 mmHg 29%
    15:00 +27°C° 0 mm 3 mps 724 mmHg 29%
    16:00 +24°C° 0 mm 2 mps 724 mmHg 34%
    17:00 +21°C° 0 mm 2 mps 724 mmHg 39%
    18:00 +20°C° 0 mm 1 mps 723 mmHg 43%
    19:00 +19°C° 0 mm 1 mps 724 mmHg 44%
    20:00 +19°C° 0 mm 1 mps 724 mmHg 45%
    21:00 +16°C° 0 mm 0 mps 725 mmHg 46%
    22:00 +18°C° 0 mm 1 mps 725 mmHg 47%
    23:00 +16°C° 0 mm 1 mps 724 mmHg 48%
    Show more